[[{"header":{"parameterUnit":"m.s-1","parameterCategory":1,"la1":30.2991,"la2":30.254,"lo1":-89.0895,"lo2":-89.0444,"dy":0.0017,"dx":0.0017,"nx":28,"ny":28,"refTime":"2024-06-14T21:00:00:Z","depth":0,"parameterNumber":2,"parameterNumberName":"U-component_of_WINDS"},"data":[0,0,0,0,0,0,0,0,0,0,0,0,0,0,0,0,0,0,0,0,0,0,0,0,0,0,0,0,0,0,0,0,0,0,0,0,0,0,0,0,0,0,0,0,0,0,0,0,0,0,0,0,0,0,0,0,0,0,-2.2828,-2.2829,0,-2.2842,-2.2842,-2.2842,-2.2812,-2.2811,-2.281,-2.2809,-2.2823,-2.2824,-2.2825,0,0,0,0,0,0,0,0,0,0,0,0,0,-2.2777,-2.2778,-2.2828,-2.2829,-2.2829,-2.2842,-2.2842,-2.2842,-2.2812,-2.2811,-2.281,-2.2809,-2.2822,-2.2824,-2.2825,0,0,0,0,0,0,0,0,0,0,0,0,0,-2.2796,-2.2778,-2.2828,-2.2815,-2.2814,-2.2842,-2.2842,-2.2842,-2.2813,-2.2811,-2.281,-2.2808,-2.2822,-2.2824,-2.2826,-2.2866,0,0,-2.2831,-2.2832,0,0,0,0,0,0,0,0,-2.2795,-2.2798,-2.2817,-2.2816,-2.2815,-2.2824,-2.2829,-2.285,-2.2813,-2.2813,-2.2809,-2.2808,-2.2824,-2.2826,-2.2832,-2.2867,-2.2868,-2.2832,-2.2833,-2.2834,-2.2834,0,0,0,0,0,0,0,-2.2793,-2.2797,-2.2834,-2.2817,-2.2816,-2.2809,-2.281,-2.2833,-2.2827,-2.2813,-2.2811,-2.2813,-2.2824,-2.283,-2.2832,-2.2868,-2.2832,-2.2833,-2.2834,-2.2835,-2.2938,-2.294,0,0,0,0,0,0,-2.2794,-2.2796,-2.2833,-2.2834,-2.2801,-2.2811,-2.2812,-2.2823,-2.2826,-2.2826,-2.2814,-2.2812,-2.2827,-2.283,-2.2832,-2.288,-2.2834,-2.2835,-2.2836,-2.2937,-2.2938,-2.294,0,0,0,0,0,0,-2.2793,-2.2797,-2.2833,-2.2815,-2.2819,-2.2814,-2.2825,-2.2824,-2.283,-2.2827,-2.2826,-2.2822,-2.2826,-2.2829,-2.2858,-2.288,-2.2836,-2.2838,-2.2935,-2.2937,-2.2939,-2.2977,0,0,0,0,0,0,-2.2791,-2.2797,-2.2812,-2.2815,-2.282,-2.2859,-2.2827,-2.2825,-2.2833,-2.283,-2.2834,-2.2833,-2.2825,-2.2856,-2.286,-2.2882,-2.2839,-2.2933,-2.2936,-2.2939,-2.2974,-2.298,-2.2986,0,0,0,0,0,-2.279,-2.2822,-2.2813,-2.2818,-2.2839,-2.286,-2.2863,-2.2853,-2.2835,-2.2851,-2.2849,-2.2833,-2.2878,-2.2859,-2.2864,-2.2887,-2.2931,-2.2935,-2.2938,-2.2971,-2.2979,-2.2986,0,0,0,0,0,0,-2.2822,-2.2822,-2.2812,-2.2847,-2.2854,-2.2855,-2.2874,-2.2862,-2.2873,-2.287,-2.2857,-2.2858,-2.289,-2.2891,-2.287,-2.2927,-2.2901,-2.2906,-2.2925,-2.2932,-2.2938,-2.2937,-2.2841,0,0,0,0,0,-2.2833,-2.2851,-2.285,-2.288,-2.2884,-2.2879,-2.2888,-2.288,-2.2886,-2.2889,-2.2889,-2.2896,-2.2912,-2.2922,-2.2936,-2.2974,-2.2975,-2.2993,-2.2999,-2.3004,-2.3008,-2.3029,-2.3036,-2.2952,-2.2952,-2.2952,0,0,-2.2856,-2.2859,-2.287,-2.2887,-2.2891,-2.291,-2.2881,-2.2902,-2.2915,-2.2892,-2.2919,-2.292,-2.2927,-2.2961,-2.2976,-2.2963,-2.3032,-2.3008,-2.3012,-2.3014,-2.3033,-2.3041,-2.3048,-2.2954,-2.2954,-2.2954,0,0,-2.2908,-2.2911,-2.2937,-2.2943,-2.295,-2.2946,-2.2952,-2.2956,-2.2955,-2.2983,-2.2966,-2.2982,-2.3009,-2.3014,-2.3021,-2.3076,-2.3062,-2.3081,-2.3113,-2.3134,-2.314,-2.3146,-2.3166,-2.3173,-2.3085,-2.3085,-2.3086,0,-2.2936,-2.2963,-2.2952,-2.2974,-2.2982,-2.2963,-2.2989,-2.2994,-2.3006,-2.3012,-2.2998,-2.3031,-2.3035,-2.307,-2.3083,-2.3089,-2.3096,-2.308,-2.314,-2.3146,-2.3151,-2.317,-2.3177,-2.3088,-2.3087,-2.3087,-2.3087,0,-2.2997,-2.3016,-2.3036,-2.3048,-2.3058,-2.3082,-2.3076,-2.3088,-2.3079,-2.3077,-2.3106,-2.3109,-2.3124,-2.3132,-2.3123,-2.3166,-2.3158,-2.3142,-2.3116,-2.3162,-2.3179,-2.3186,-2.3091,-2.309,-2.3089,-2.3089,0,0,-2.3068,-2.3075,-2.3082,-2.3088,-2.3095,-2.3109,-2.3133,-2.3147,-2.3158,-2.3167,-2.3186,-2.321,-2.3196,-2.3203,-2.3196,-2.3214,-2.3258,-2.3196,-2.3196,-2.3207,-2.3305,-2.3317,-2.3325,-2.3249,-2.325,-2.3251,-2.3304,0,-2.3119,-2.3159,-2.3151,-2.3191,-2.3209,-2.3191,-2.3212,-2.3218,-2.3217,-2.3232,-2.3231,-2.3248,-2.3228,-2.3232,-2.3249,-2.3249,-2.3277,-2.3245,-2.3267,-2.3268,-2.3265,-2.3334,-2.3346,-2.3397,-2.3311,-2.3312,-2.3313,0,-2.3184,-2.3196,-2.3237,-2.3242,-2.3249,-2.3268,-2.3281,-2.3296,-2.3303,-2.3301,-2.331,-2.3299,-2.3323,-2.3298,-2.333,-2.3309,-2.3317,-2.3318,-2.332,-2.3321,-2.3293,-2.3337,-2.3412,-2.342,-2.3324,-2.3323,-2.3322,0,-2.3232,-2.3258,-2.3287,-2.3292,-2.3298,-2.3312,-2.3315,-2.3321,-2.3331,-2.3342,-2.3348,-2.3363,-2.3371,-2.3382,-2.3376,-2.3358,-2.341,-2.3383,-2.3409,-2.3409,-2.342,-2.3419,-2.3497,-2.3426,-2.3426,-2.3426,-2.3426,0,-2.329,-2.3316,-2.3308,-2.3326,-2.3355,-2.3345,-2.3374,-2.3376,-2.3381,-2.3399,-2.3384,-2.3401,-2.3392,-2.3408,-2.3403,-2.3431,-2.3435,-2.3434,-2.3432,-2.3435,-2.3435,-2.3441,-2.3437,-2.3428,-2.3427,-2.3427,-2.3427,0,-2.3348,-2.3344,-2.3374,-2.3378,-2.3379,-2.3401,-2.3404,-2.342,-2.3419,-2.3441,-2.3446,-2.3443,-2.3461,-2.3456,-2.3476,-2.3473,-2.3509,-2.3503,-2.3506,-2.3505,-2.353,-2.3528,-2.3614,-2.3625,-2.3547,-2.3548,-2.3548,0,-2.3385,-2.3405,-2.3411,-2.3422,-2.3427,-2.3444,-2.3454,-2.3446,-2.3457,-2.3467,-2.3483,-2.35,-2.3513,-2.3544,-2.3543,-2.3559,-2.3553,-2.3582,-2.3555,-2.3558,-2.3553,-2.3552,-2.3554,-2.3587,-2.3588,-2.3589,-2.359,0,-2.3452,-2.3449,-2.3464,-2.3479,-2.3491,-2.3502,-2.3511,-2.3521,-2.3514,-2.3527,-2.3546,-2.3556,-2.3577,-2.3594,-2.3608,-2.3612,-2.36,-2.3598,-2.3605,-2.3608,-2.3609,-2.3609,-2.3521,-2.3596,-2.3595,-2.3595,-2.3595,-2.3594,-2.3501,-2.3518,-2.3525,-2.3542,-2.3549,-2.3558,-2.3574,-2.3575,-2.359,-2.3606,-2.3601,-2.3622,-2.363,-2.3648,-2.3653,-2.367,-2.3659,-2.3669,-2.3671,-2.3674,-2.3677,-2.3607,-2.3673,-2.3672,-2.3672,-2.3672,-2.3672,0,-2.3567,-2.3571,-2.3587,-2.3601,-2.3615,-2.3602,-2.3612,-2.3625,-2.3644,-2.3652,-2.3666,-2.3688,-2.3705,-2.3706,-2.3722,-2.3736,-2.3731,-2.374,-2.3739,-2.374,-2.3686,-2.3678,-2.3744,-2.3744,-2.3744,-2.3744,-2.3744,-2.3744,-2.3603,-2.3631,-2.3629,-2.3661,-2.3664,-2.3686,-2.3692,-2.3701,-2.3708,-2.3733,-2.3747,-2.3748,-2.3754,-2.377,-2.3785,-2.3785,-2.3792,-2.3804,-2.3802,-2.3751,-2.3744,-2.3737,-2.373,-2.3805,-2.3805,-2.3854,-2.3855,-2.3855]},{"header":{"parameterUnit":"m.s-1","parameterCategory":1,"la1":30.2991,"la2":30.254,"lo1":-89.0895,"lo2":-89.0444,"dy":0.0017,"dx":0.0017,"nx":28,"ny":28,"refTime":"2024-06-14T21:00:00:Z","depth":0,"parameterNumber":3,"parameterNumberName":"V-component_of_WINDS"},"data":[0,0,0,0,0,0,0,0,0,0,0,0,0,0,0,0,0,0,0,0,0,0,0,0,0,0,0,0,0,0,0,0,0,0,0,0,0,0,0,0,0,0,0,0,0,0,0,0,0,0,0,0,0,0,0,0,0,0,4.0206,4.0206,0,4.0214,4.0214,4.0214,4.0199,4.0198,4.0198,4.0197,4.0203,4.0204,4.0204,0,0,0,0,0,0,0,0,0,0,0,0,0,4.0178,4.0179,4.0206,4.0206,4.0207,4.0214,4.0214,4.0214,4.0199,4.0198,4.0197,4.0197,4.0203,4.0203,4.0204,0,0,0,0,0,0,0,0,0,0,0,0,0,4.0188,4.0179,4.0206,4.02,4.0199,4.0214,4.0214,4.0214,4.0199,4.0198,4.0197,4.0197,4.0203,4.0203,4.0204,4.0225,0,0,4.0207,4.0208,0,0,0,0,0,0,0,0,4.0188,4.0189,4.0201,4.02,4.02,4.0205,4.0206,4.0218,4.0199,4.0199,4.0197,4.0196,4.0204,4.0205,4.0208,4.0225,4.0225,4.0207,4.0208,4.0208,4.0208,0,0,0,0,0,0,0,4.0187,4.0189,4.0209,4.0201,4.02,4.0196,4.0197,4.0208,4.0205,4.0199,4.0198,4.0199,4.0204,4.0207,4.0208,4.0226,4.0207,4.0208,4.0209,4.0209,4.0261,4.0262,0,0,0,0,0,0,4.0187,4.0189,4.0209,4.0209,4.0192,4.0197,4.0198,4.0204,4.0205,4.0205,4.02,4.0198,4.0206,4.0207,4.0208,4.0232,4.0208,4.0209,4.021,4.026,4.0261,4.0262,0,0,0,0,0,0,4.0187,4.0189,4.0209,4.0199,4.0201,4.0199,4.0205,4.0204,4.0207,4.0206,4.0205,4.0203,4.0205,4.0207,4.0221,4.0232,4.0209,4.021,4.0259,4.0261,4.0262,4.0281,0,0,0,0,0,0,4.0186,4.0189,4.0197,4.0199,4.0202,4.0222,4.0206,4.0205,4.0209,4.0208,4.0209,4.0209,4.0205,4.022,4.0222,4.0233,4.0211,4.0258,4.026,4.0261,4.028,4.0283,4.0286,0,0,0,0,0,4.0185,4.0202,4.0198,4.02,4.0211,4.0223,4.0224,4.0219,4.021,4.0218,4.0217,4.0209,4.0231,4.0221,4.0224,4.0235,4.0258,4.026,4.0261,4.0278,4.0282,4.0286,0,0,0,0,0,0,4.02,4.0202,4.0197,4.0215,4.0219,4.022,4.023,4.0224,4.023,4.0228,4.0221,4.0222,4.0238,4.0238,4.0227,4.0256,4.0243,4.0245,4.0255,4.0259,4.0262,4.0261,4.0212,0,0,0,0,0,4.0206,4.0215,4.0216,4.0231,4.0234,4.0232,4.0236,4.0233,4.0236,4.0237,4.0238,4.0241,4.0249,4.0254,4.0261,4.028,4.028,4.0289,4.0293,4.0295,4.0297,4.0308,4.0312,4.0268,4.0268,4.0268,0,0,4.0216,4.0219,4.0225,4.0235,4.0237,4.0247,4.0233,4.0244,4.0251,4.0239,4.0253,4.0253,4.0257,4.0274,4.0281,4.0275,4.0309,4.0298,4.03,4.03,4.031,4.0314,4.0318,4.027,4.027,4.0269,0,0,4.0241,4.0244,4.0258,4.0261,4.0266,4.0265,4.0268,4.0271,4.0271,4.0285,4.0276,4.0285,4.0298,4.0301,4.0304,4.0333,4.0325,4.0335,4.0352,4.0362,4.0365,4.0368,4.0378,4.0382,4.0338,4.0338,4.0338,0,4.0254,4.0269,4.0265,4.0277,4.0282,4.0273,4.0287,4.029,4.0296,4.03,4.0292,4.031,4.0312,4.0329,4.0337,4.034,4.0343,4.0335,4.0365,4.0368,4.0371,4.038,4.0384,4.0339,4.0339,4.0338,4.0338,0,4.0285,4.0295,4.0306,4.0313,4.0319,4.0332,4.033,4.0336,4.0333,4.0332,4.0347,4.0349,4.0357,4.0361,4.0357,4.0379,4.0374,4.0367,4.0353,4.0376,4.0385,4.0389,4.034,4.034,4.034,4.0339,0,0,4.0317,4.0324,4.0328,4.0332,4.0337,4.0345,4.0358,4.0366,4.0372,4.0377,4.0387,4.04,4.0393,4.0397,4.0393,4.0403,4.0425,4.0394,4.0394,4.0399,4.0449,4.0455,4.0459,4.0421,4.0421,4.0422,4.0449,0,4.0342,4.0364,4.0362,4.0383,4.0393,4.0386,4.0397,4.0401,4.0402,4.041,4.041,4.0419,4.0409,4.0412,4.0421,4.0421,4.0435,4.0419,4.043,4.043,4.0428,4.0463,4.0469,4.0494,4.0452,4.0453,4.0453,0,4.0373,4.0381,4.0403,4.0408,4.0412,4.0422,4.0431,4.0439,4.0444,4.0444,4.0449,4.0444,4.0457,4.0444,4.0461,4.045,4.0455,4.0456,4.0457,4.0457,4.0442,4.0464,4.0502,4.0506,4.0459,4.0458,4.0458,0,4.0394,4.041,4.0426,4.043,4.0436,4.0443,4.0446,4.0451,4.0456,4.0464,4.0467,4.0475,4.048,4.0486,4.0484,4.0475,4.0502,4.0489,4.0501,4.0501,4.0506,4.0506,4.0545,4.051,4.051,4.051,4.051,0,4.0421,4.0435,4.0436,4.0445,4.0461,4.0459,4.0474,4.0476,4.0481,4.049,4.0484,4.0493,4.049,4.0499,4.0497,4.0512,4.0514,4.0514,4.0513,4.0514,4.0514,4.0516,4.0514,4.0511,4.0511,4.0511,4.0511,0,4.0447,4.0448,4.0465,4.047,4.0472,4.0483,4.0488,4.0497,4.0498,4.051,4.0513,4.0513,4.0524,4.0522,4.0533,4.0532,4.0551,4.0548,4.0549,4.0548,4.0561,4.0559,4.0602,4.0607,4.057,4.057,4.0571,0,4.0464,4.0475,4.0482,4.0489,4.0493,4.0503,4.0509,4.0508,4.0515,4.0522,4.053,4.0541,4.0548,4.0565,4.0566,4.0575,4.0572,4.0587,4.0573,4.0574,4.0572,4.0571,4.0572,4.0589,4.0589,4.059,4.059,0,4.0494,4.0494,4.0504,4.0514,4.0522,4.053,4.0537,4.0542,4.0542,4.0549,4.0561,4.0567,4.0579,4.0589,4.0598,4.06,4.0595,4.0594,4.0598,4.0598,4.0598,4.0598,4.0555,4.0593,4.0593,4.0592,4.0592,4.0592,4.0515,4.0525,4.0532,4.0543,4.0549,4.0556,4.0565,4.0568,4.0577,4.0588,4.0586,4.0599,4.0605,4.0616,4.0619,4.0629,4.0623,4.0628,4.0629,4.063,4.0632,4.0598,4.063,4.063,4.063,4.063,4.063,0,4.0545,4.0549,4.056,4.0571,4.058,4.0576,4.0584,4.0591,4.0602,4.0609,4.0617,4.063,4.064,4.0643,4.0653,4.066,4.0658,4.0662,4.0661,4.0662,4.0636,4.0632,4.0664,4.0664,4.0664,4.0664,4.0664,4.0664,4.0561,4.0577,4.0579,4.0598,4.0602,4.0615,4.062,4.0627,4.0632,4.0647,4.0656,4.0659,4.0663,4.0674,4.0683,4.0683,4.0687,4.0692,4.0692,4.0667,4.0664,4.0661,4.0657,4.0693,4.0693,4.0717,4.0717,4.0717]}]]